Regional Weather Roundup
Issued by NWS

Home | Current Version | Previous Version | Graphics & Text | Print | Product List | Glossary On
Versions: 1 2 3 4 5 6 7 8 9 10 11 12 13 14 15 16 17 18 19 20 21 22 23 24 25 26 27 28 29 30 31 32 33 34 35 36 37 38 39 40 41 42 43 44 45 46 47 48 49 50
000
ASUS45 KSLC 151610
RWRUT

UTAH REGIONAL WEATHER ROUNDUP
NATIONAL WEATHER SERVICE SALT LAKE CITY UT
1000 AM MDT MON SEP 15 2014

UTZ001>011-023>025-151700-

NORTHERN UTAH

CITY           SKY/WX    TMP DP  RH WIND       PRES   REMARKS
HILL AFB       PTSUNNY   69  42  37 E13       30.15S
LOGAN          SUNNY     64  44  48 N6        30.15S
OGDEN          MOSUNNY   73  43  33 CALM      30.13R
PROVO AIRPORT  MOSUNNY   70  43  37 E7        30.18R
SALT LAKE CITY MOSUNNY   72  43  35 E9        30.11S
VERNAL         SUNNY     67  40  37 S3        30.25R
WENDOVER       PTSUNNY   70  36  28 NE5       30.12S
HEBER CITY     MOSUNNY   57  41  54 CALM      30.25S
WEST JORDAN    SUNNY     72  39  30 S9        30.15R

$$

UTZ012>022-026-027-151700-

SOUTHERN UTAH

CITY           SKY/WX    TMP DP  RH WIND       PRES   REMARKS
BRYCE CANYON   SUNNY     64  42  44 N3        30.38R
CEDAR CITY     SUNNY     69  45  41 NW3       30.22R
MILFORD        SUNNY     72  41  32 S13       30.17R
MOAB/CYNLANDS  SUNNY     76  40  27 E7        30.15S
PRICE          SUNNY     73  30  20 E5        30.26R
ST GEORGE      MOSUNNY   73  45  35 CALM      30.08S

$$

REGIONAL REPORTS     COLORADO/ARIZONA

CITY           SKY/WX    TMP DP  RH WIND       PRES   REMARKS
CRAIG, CO      SUNNY     64  43  46 VRB3      30.31F
GRAND JUNCTION SUNNY     68  42  38 SE15      30.21S
RIFLE          SUNNY     62  41  46 E3        30.29S
MONTROSE       SUNNY     68  43  40 CALM      30.30S
CORTEZ         SUNNY     68  44  42 E3        30.29S
PAGE, AZ       SUNNY     77  41  27 VRB3      30.15R
GRAND CANYON   SUNNY     71  52  50 CALM      30.31R
KINGMAN        SUNNY     83  52  34 CALM      30.06S
FLAGSTAFF      SUNNY     71  50  47 CALM      30.32S

$$

REGIONAL REPORTS    NEVADA/IDAHO/WYOMING

CITY           SKY/WX    TMP DP  RH WIND       PRES   REMARKS
LAS VEGAS, NV  MOSUNNY   87  46  24 SW3       29.93R
ELY            MOSUNNY   67  37  33 VRB3      30.26R
ELKO           SUNNY     62  31  31 E3        30.19S
POCATELLO, ID  SUNNY     64  37  36 CALM      30.16S
BURLEY         SUNNY     61  43  51 VRB3      30.12S
EVANSTON, WY   MOSUNNY   58  40  51 N10       30.32S
ROCK SPRINGS   MOSUNNY   56  35  45 N6        30.34R

$$



USA.gov is the U.S. government's official web portal to all federal, state and local government web resources and services.